989  
ASUS44 KSHV 230610  
RWRSHV  
 
WEATHER ROUNDUP FOR THE FOUR STATE AREA  
NATIONAL WEATHER SERVICE SHREVEPORT LA  
100 AM CDT SAT JUN 23 2018  
 
NOTE: "FAIR" INDICATES FEW OR NO CLOUDS BELOW 12000 FEET  
WITH NO SIGNIFICANT WEATHER AND/OR S TO VISIBILITY
.  
 
!LAZ001-LAZ014-TXZ097-230700  
SHREVEPORT...MONROE...TEXARKANA RADIOS  
 
CITY SKY/WX TMP DP RH WIND PRES REMARKS
 
SHREVEPORT N/A 84 77 79 S12 29.78F  
MONROE N/A 81 77 88 SW8 29.82R  
NATCHITOCHES CLOUDY 82 77 86 S9 29.84R  
TEXARKANA CLEAR 80 76 87 S6 29.77F  

 
 
!LAZ001-LAZ014-TXZ097-230700  
OTHER LOCATIONS...  
 
CITY SKY/WX TMP DP RH WIND PRES REMARKS
 
DOWNTOWN SHV N/A 86 76 71 S14 29.78F  
BOSSIER CITY N/A 84 75 73 S10 29.78F  
RUSTON N/A 82 75 79 CALM 29.86R  
LITTLE ROCK CLEAR 76 73 91 W6 29.77F  
EL DORADO N/A 79 78 97 CALM 29.78F  
JACKSON N/A 72 70 93 S6 29.85R  
NEW ORLEANS N/A 80 76 87 SW6 29.90R  
HOUSTON N/A 80 76 87 S8 29.84S  
LUFKIN PTCLDY 80 77 90 S3 29.83R  
TYLER CLEAR 82 76 81 S10 29.78F  
DAL FT WORTH PTCLDY 88 72 58 S16 29.71F  

 
 
!TXZ136-TXZ165-230700  
TYLER...LUFKIN RADIOS  
 
CITY SKY/WX TMP DP RH WIND PRES REMARKS
 
TYLER CLEAR 82 76 81 S10 29.78F  
GILMER CLEAR 82 74 76 S8 29.78S  
LONGVIEW CLEAR 82 76 81 S8 29.78F  
LUFKIN PTCLDY 80 77 90 S3 29.83R  

 
 
!TXZ136-TXZ165-230700  
OTHER LOCATIONS...  
 
CITY SKY/WX TMP DP RH WIND PRES REMARKS
 
NACOGDOCHES N/A 80 77 90 S8 29.84R  
BEAUMONT N/A 80 75 84 S15 29.84S  
HOUSTON N/A 80 76 87 S8 29.84S  
COLLEGE STN CLEAR 80 77 90 S12 29.82S  
AUSTIN PTCLDY 81 75 82 S12 29.82R  
DAL FT WORTH PTCLDY 88 72 58 S16 29.71F  
TEXARKANA CLEAR 80 76 87 S6 29.77F  
SHREVEPORT N/A 84 77 79 S12 29.78F  
FORT POLK N/A 78 74 90 W6 29.85R  
LAKE CHARLES N/A 81 76 84 S6 29.85F  

 
 
 
CLICK HERE TO GO TO PREVIOUS BULLETINS.

The Nexlab LA Page
The Nexlab TX Page
The Nexlab AR Page
The Nexlab OK Page Main Text Page